Regional Weather Roundup
Issued by NWS

Home | Current Version | Previous Version | Graphics & Text | Print | Product List | Glossary On
Versions: 1 2 3 4 5 6 7 8 9 10 11 12 13 14 15 16 17 18 19 20 21 22 23 24 25 26 27 28 29 30 31 32 33 34 35 36 37 38 39 40 41 42 43 44 45 46 47 48 49 50
159
ASUS44 KMEG 282210
RWRTN
TENNESSEE HOURLY STATE WEATHER ROUNDUP
NATIONAL WEATHER SERVICE MEMPHIS TN
500 PM CDT TUE MAR 28 2017

TNZ002-004-019-021-049-052-054-088>092-282300-
WEST TENNESSEE

CITY           SKY/WX    TMP DP  RH WIND       PRES   REMARKS
MEMPHIS INTL   MOSUNNY   78  56  46 N3        29.93F
NWS MEMPHIS      N/A     77 N/A N/A MISG        N/A
JACKSON        MOSUNNY   73  56  54 N8        29.98F
DYERSBURG      PTSUNNY   70  55  59 NE9       29.99F
SOMERVILLE     SUNNY     75  55  50 NE7G13    29.94F
BOLIVAR        SUNNY     73  55  53 VRB6      29.95F
PARIS          PTSUNNY   64  52  63 NE9       30.01S
HUNTINGDON     SUNNY     68  54  60 NE8       29.98F
SAVANNAH       MOSUNNY   75  55  50 CALM      29.95F HAZE
$$

TNZ008-025-027-028-033-062-065-066-282300-
NORTH MIDDLE TENNESSEE

CITY           SKY/WX    TMP DP  RH WIND       PRES   REMARKS
NASHVILLE      PTSUNNY   70  52  52 N8        30.00S
PORTLAND       CLOUDY    64  54  68 N6        30.02R
CLARKSVILLE    CLOUDY    64  53  67 N9        30.02S
SMYRNA         MOSUNNY   72  53  51 N8        30.01R
COOKEVILLE     CLOUDY    66  52  59 N3        30.00R
GALLATIN       CLOUDY    66  54  63 CALM      30.04R
CROSSVILLE     CLOUDY    62  49  62 W9        30.02F
$$

TNZ061-075-076-078-094-096-097-282300-
SOUTH MIDDLE TENNESSEE

CITY           SKY/WX    TMP DP  RH WIND       PRES   REMARKS
FAYETTEVILLE   MOSUNNY   72  55  56 CALM      29.99R
TULLAHOMA      PTSUNNY   70  52  52 NW8         N/A
WINCHESTER     MOSUNNY   70  54  56 W7        29.99S
MCMINNVILLE    CLOUDY    66  54  63 NW3       30.01S
COLUMBIA       SUNNY     73  54  49 CALM      29.96S
SHELBYVILLE    SUNNY     72  55  56 N3        30.00S
$$

TNZ017-018-042-046-047-282300-
NORTHEAST TENNESSEE

CITY           SKY/WX    TMP DP  RH WIND       PRES   REMARKS
TRI CITIES     CLOUDY    67  49  52 NW9       29.98R
ELIZABETHTON   CLOUDY    68  54  60 SW9       29.97S
$$

TNZ012-013-036-069-073-074-282300-
CENTRAL EAST TENNESSEE

CITY           SKY/WX    TMP DP  RH WIND       PRES   REMARKS
KNOXVILLE      MOSUNNY   73  50  44 W13       29.96S
OAK RIDGE      CLOUDY    75  49  39 VRB6      29.97S
DOWNTOWN KNOXV CLOUDY    73  52  46 VRB5      29.96S
GATLINBURG     MOSUNNY   72  54  53 W8        29.96S
MORRISTOWN     PTSUNNY   70  52  52 VRB7      29.97R
JACKSBORO      PTSUNNY   70  52  52 VRB3      30.01R
$$

TNZ083-085-099-282300-
SOUTHEAST TENNESSEE

CITY           SKY/WX    TMP DP  RH WIND       PRES   REMARKS
CHATTANOOGA    MOSUNNY   77  48  35 W8        29.96S
$$

SKY/WX REPORTED AS FAIR MEANS FEW OR NO CLOUDS BELOW
12 THOUSAND FEET.





USA.gov is the U.S. government's official web portal to all federal, state and local government web resources and services.